| time (UTC) | temp C | wind direction | speed KPH | gust KPH | rain 1hr cm | rain 24hr cm | rain mn cm | humidity % | barometer mb |
| 20260906220503 | 36 | 112 | 12.9 | 19.3 | 0.00 | 0.00 | 0.00 | 37 | 1006.3 |
| 20260906220006 | 36 | 135 | 12.9 | 17.7 | 0.00 | 0.00 | 0.00 | 37 | 1006.3 |
| 20260906215503 | 35 | 135 | 14.5 | 17.7 | 0.00 | 0.00 | 0.00 | 38 | 1006.3 |
| 20260906214002 | 36 | 157 | 17.7 | 25.7 | 0.00 | 0.00 | 0.00 | 36 | 1006.3 |
| 20260906212005 | 36 | 157 | 17.7 | 20.9 | 0.00 | 0.00 | 0.00 | 36 | 1007.0 |
| 20260906210503 | 35 | 90 | 12.9 | 17.7 | 0.00 | 0.00 | 0.00 | 38 | 1007.3 |
| 20260906204504 | 35 | 90 | 20.9 | 25.7 | 0.00 | 0.00 | 0.00 | 39 | 1007.7 |
| 20260906203504 | 35 | 90 | 24.1 | 30.6 | 0.00 | 0.00 | 0.00 | 38 | 1007.7 |
| 20260906203007 | 36 | 135 | 16.1 | 19.3 | 0.00 | 0.00 | 0.00 | 37 | 1007.7 |
| 20260906202505 | 35 | 157 | 22.5 | 29.0 | 0.00 | 0.00 | 0.00 | 38 | 1008.0 |
| 20260906202002 | 35 | 112 | 9.7 | 11.3 | 0.00 | 0.00 | 0.00 | 38 | 1008.0 |
| 20260906201505 | 35 | 67 | 24.1 | 30.6 | 0.00 | 0.00 | 0.00 | 38 | 1007.7 |
| 20260906200003 | 35 | 135 | 16.1 | 20.9 | 0.00 | 0.00 | 0.00 | 38 | 1008.3 |
| 20260906195004 | 35 | 90 | 22.5 | 29.0 | 0.00 | 0.00 | 0.00 | 38 | 1008.3 |
| 20260906193005 | 35 | 67 | 20.9 | 29.0 | 0.00 | 0.00 | 0.00 | 37 | 1008.3 |
| 20260906192509 | 35 | 67 | 27.4 | 35.4 | 0.00 | 0.00 | 0.00 | 39 | 1008.7 |
| 20260906191509 | 34 | 112 | 24.1 | 30.6 | 0.00 | 0.00 | 0.00 | 39 | 1008.3 |
| 20260906191031 | 35 | 90 | 19.3 | 27.4 | 0.00 | 0.00 | 0.00 | 38 | 1008.3 |
| 20260906185508 | 34 | 90 | 17.7 | 22.5 | 0.00 | 0.00 | 0.00 | 40 | 1008.7 |
| 20260906184507 | 35 | 67 | 16.1 | 20.9 | 0.00 | 0.00 | 0.00 | 41 | 1009.0 |
| 20260906184004 | 35 | 135 | 17.7 | 32.2 | 0.00 | 0.00 | 0.00 | 41 | 1009.0 |
| 20260906183507 | 34 | 112 | 19.3 | 27.4 | 0.00 | 0.00 | 0.00 | 42 | 1009.0 |
| 20260906182502 | 34 | 67 | 25.7 | 30.6 | 0.00 | 0.00 | 0.00 | 43 | 1009.4 |
| 20260906180006 | 34 | 67 | 20.9 | 27.4 | 0.00 | 0.00 | 0.00 | 43 | 1009.7 |
| 20260906175007 | 34 | 112 | 20.9 | 29.0 | 0.00 | 0.00 | 0.00 | 44 | 1009.7 |
| 20260906174505 | 34 | 135 | 16.1 | 19.3 | 0.00 | 0.00 | 0.00 | 44 | 1010.0 |
| 20260906172506 | 33 | 90 | 14.5 | 19.3 | 0.00 | 0.00 | 0.00 | 47 | 1010.4 |
| 20260906172003 | 33 | 67 | 17.7 | 25.7 | 0.00 | 0.00 | 0.00 | 47 | 1010.4 |
| 20260906171507 | 33 | 112 | 17.7 | 24.1 | 0.00 | 0.00 | 0.00 | 46 | 1010.0 |
| 20260906171004 | 33 | 112 | 14.5 | 24.1 | 0.00 | 0.00 | 0.00 | 46 | 1010.0 |
| 20260906165005 | 33 | 112 | 12.9 | 20.9 | 0.00 | 0.00 | 0.00 | 46 | 1010.7 |
| 20260906164502 | 32 | 112 | 12.9 | 22.5 | 0.00 | 0.00 | 0.00 | 49 | 1010.4 |
| 20260906163508 | 32 | 67 | 16.1 | 19.3 | 0.00 | 0.00 | 0.00 | 49 | 1010.4 |
| 20260906163006 | 33 | 90 | 14.5 | 19.3 | 0.00 | 0.00 | 0.00 | 46 | 1010.4 |
| 20260906161503 | 32 | 112 | 9.7 | 16.1 | 0.00 | 0.00 | 0.00 | 50 | 1010.4 |
| 20260906160006 | 33 | 67 | 12.9 | 14.5 | 0.00 | 0.00 | 0.00 | 50 | 1010.4 |
| 20260906155008 | 32 | 157 | 14.5 | 19.3 | 0.00 | 0.00 | 0.00 | 51 | 1010.4 |
| 20260906153504 | 32 | 135 | 8.0 | 11.3 | 0.00 | 0.00 | 0.00 | 52 | 1010.4 |
| 20260906153007 | 32 | 67 | 9.7 | 16.1 | 0.00 | 0.00 | 0.00 | 52 | 1010.4 |
| 20260906152504 | 32 | 112 | 11.3 | 14.5 | 0.00 | 0.00 | 0.00 | 54 | 1010.0 |
| 20260906114503 | 24 | 157 | 1.6 | 3.2 | 0.00 | 0.00 | 0.00 | 91 | 1013.8 |
| 20260906113503 | 24 | 157 | 3.2 | 4.8 | 0.00 | 0.00 | 0.00 | 90 | 1013.8 |
| 20260906113032 | 25 | 157 | 4.8 | 4.8 | 0.00 | 0.00 | 0.00 | 89 | 1013.8 |
| 20260906112003 | 25 | 157 | 3.2 | 4.8 | 0.00 | 0.00 | 0.00 | 89 | 1013.4 |
| 20260906111506 | 25 | 157 | 4.8 | 6.4 | 0.00 | 0.00 | 0.00 | 90 | 1013.4 |
| 20260906111005 | 25 | 157 | 4.8 | 4.8 | 0.00 | 0.00 | 0.00 | 89 | 1013.4 |
| 20260906110507 | 25 | 157 | 4.8 | 4.8 | 0.00 | 0.00 | 0.00 | 90 | 1013.4 |
| 20260906110004 | 25 | 157 | 3.2 | 4.8 | 0.00 | 0.00 | 0.00 | 89 | 1013.4 |
| 20260906104507 | 24 | 157 | 4.8 | 6.4 | 0.00 | 0.00 | 0.00 | 89 | 1013.1 |
| 20260906103005 | 25 | 157 | 0.0 | 0.0 | 0.00 | 0.00 | 0.00 | 87 | 1013.1 |
| 20260906102508 | 25 | 157 | 0.0 | 0.0 | 0.00 | 0.00 | 0.00 | 88 | 1013.1 |
| 20260906101007 | 25 | 157 | 0.0 | 0.0 | 0.00 | 0.00 | 0.00 | 87 | 1012.7 |
| 20260906094504 | 25 | 157 | 0.0 | 0.0 | 0.00 | 0.00 | 0.00 | 87 | 1012.7 |
| 20260906092531 | 25 | 180 | 0.0 | 0.0 | 0.00 | 0.00 | 0.00 | 86 | 1012.4 |
| 20260906085506 | 25 | 180 | 1.6 | 3.2 | 0.00 | 0.00 | 0.00 | 81 | 1012.4 |
| 20260906085003 | 25 | 180 | 1.6 | 3.2 | 0.00 | 0.00 | 0.00 | 81 | 1012.4 |
| 20260906084506 | 25 | 180 | 0.0 | 0.0 | 0.00 | 0.00 | 0.00 | 80 | 1012.4 |
| 20260906084003 | 26 | 180 | 3.2 | 4.8 | 0.00 | 0.00 | 0.00 | 80 | 1012.4 |
| 20260906082003 | 26 | 180 | 3.2 | 4.8 | 0.00 | 0.00 | 0.00 | 79 | 1011.7 |
| 20260906081507 | 26 | 180 | 3.2 | 4.8 | 0.00 | 0.00 | 0.00 | 79 | 1011.7 |
| 20260906080507 | 26 | 180 | 1.6 | 3.2 | 0.00 | 0.00 | 0.00 | 78 | 1011.7 |
| 20260906080005 | 26 | 180 | 1.6 | 3.2 | 0.00 | 0.00 | 0.00 | 77 | 1011.7 |
| 20260906074008 | 26 | 157 | 4.8 | 6.4 | 0.00 | 0.00 | 0.00 | 76 | 1012.1 |
| 20260906072029 | 26 | 157 | 0.0 | 1.6 | 0.00 | 0.00 | 0.00 | 76 | 1012.1 |
| 20260906070508 | 26 | 157 | 0.0 | 0.0 | 0.00 | 0.00 | 0.00 | 75 | 1012.1 |
| 20260906070005 | 26 | 157 | 3.2 | 4.8 | 0.00 | 0.00 | 0.00 | 74 | 1012.1 |
| 20260906065508 | 26 | 157 | 0.0 | 0.0 | 0.00 | 0.00 | 0.00 | 74 | 1012.1 |
| 20260906065006 | 27 | 157 | 4.8 | 6.4 | 0.00 | 0.00 | 0.00 | 73 | 1012.1 |
| 20260906063505 | 27 | 157 | 4.8 | 6.4 | 0.00 | 0.00 | 0.00 | 72 | 1011.7 |
| 20260906062011 | 27 | 157 | 4.8 | 6.4 | 0.00 | 0.00 | 0.00 | 70 | 1011.7 |
| 20260906061507 | 27 | 157 | 3.2 | 4.8 | 0.00 | 0.00 | 0.00 | 70 | 1011.7 |
| 20260906061005 | 27 | 157 | 4.8 | 6.4 | 0.00 | 0.00 | 0.00 | 69 | 1011.7 |
| 20260906055008 | 27 | 157 | 6.4 | 8.0 | 0.00 | 0.00 | 0.00 | 68 | 1011.7 |
| 20260906054505 | 27 | 157 | 6.4 | 8.0 | 0.00 | 0.00 | 0.00 | 67 | 1011.7 |
| 20260906053004 | 28 | 157 | 9.7 | 12.9 | 0.00 | 0.00 | 0.00 | 68 | 1011.7 |
| 20260906051005 | 28 | 157 | 4.8 | 8.0 | 0.00 | 0.00 | 0.00 | 65 | 1011.7 |
| 20260906050508 | 28 | 157 | 6.4 | 6.4 | 0.00 | 0.00 | 0.00 | 64 | 1011.7 |
| 20260906045503 | 28 | 157 | 6.4 | 8.0 | 0.00 | 0.00 | 0.00 | 65 | 1011.4 |
| 20260906044503 | 28 | 157 | 6.4 | 8.0 | 0.00 | 0.00 | 0.00 | 64 | 1011.4 |
| 20260906044006 | 28 | 157 | 6.4 | 8.0 | 0.00 | 0.00 | 0.00 | 63 | 1011.4 |
| 20260906043008 | 28 | 157 | 6.4 | 8.0 | 0.00 | 0.00 | 0.00 | 63 | 1011.4 |
| 20260906042003 | 29 | 157 | 4.8 | 6.4 | 0.00 | 0.00 | 0.00 | 62 | 1011.4 |
| 20260906035506 | 29 | 157 | 9.7 | 12.9 | 0.00 | 0.00 | 0.00 | 62 | 1011.0 |
| 20260906034506 | 30 | 157 | 8.0 | 9.7 | 0.00 | 0.00 | 0.00 | 61 | 1011.0 |
| 20260906033507 | 30 | 180 | 11.3 | 14.5 | 0.00 | 0.00 | 0.00 | 60 | 1011.0 |
| 20260906033005 | 30 | 157 | 11.3 | 12.9 | 0.00 | 0.00 | 0.00 | 59 | 1011.0 |
| 20260906030509 | 30 | 135 | 11.3 | 16.1 | 0.00 | 0.00 | 0.00 | 56 | 1010.7 |
| 20260906030005 | 30 | 180 | 9.7 | 16.1 | 0.00 | 0.00 | 0.00 | 56 | 1010.7 |
| 20260906023505 | 31 | 135 | 14.5 | 22.5 | 0.00 | 0.00 | 0.00 | 53 | 1009.7 |
| 20260906023008 | 31 | 157 | 12.9 | 20.9 | 0.00 | 0.00 | 0.00 | 51 | 1009.7 |
| 20260906022505 | 31 | 157 | 12.9 | 16.1 | 0.00 | 0.00 | 0.00 | 49 | 1009.4 |
| 20260906022010 | 32 | 157 | 14.5 | 19.3 | 0.00 | 0.00 | 0.00 | 47 | 1009.4 |
| 20260906020003 | 32 | 112 | 12.9 | 16.1 | 0.00 | 0.00 | 0.00 | 43 | 1009.0 |
| 20260906014003 | 32 | 112 | 9.7 | 11.3 | 0.00 | 0.00 | 0.00 | 42 | 1008.7 |
| 20260906011503 | 32 | 135 | 8.0 | 9.7 | 0.00 | 0.00 | 0.00 | 42 | 1008.0 |
| 20260906011007 | 33 | 112 | 4.8 | 6.4 | 0.00 | 0.00 | 0.00 | 41 | 1008.0 |
| 20260906005504 | 33 | 112 | 9.7 | 12.9 | 0.00 | 0.00 | 0.00 | 40 | 1007.7 |
| 20260906004504 | 33 | 135 | 9.7 | 14.5 | 0.00 | 0.00 | 0.00 | 39 | 1007.3 |
| 20260906004007 | 34 | 112 | 8.0 | 12.9 | 0.00 | 0.00 | 0.00 | 38 | 1007.3 |
| 20260906003504 | 34 | 157 | 8.0 | 14.5 | 0.00 | 0.00 | 0.00 | 38 | 1007.0 |
| 20260906002505 | 34 | 112 | 11.3 | 16.1 | 0.00 | 0.00 | 0.00 | 38 | 1007.0 |
| 20260906001505 | 35 | 135 | 9.7 | 12.9 | 0.00 | 0.00 | 0.00 | 36 | 1007.0 |
| 20260906001008 | 35 | 135 | 9.7 | 14.5 | 0.00 | 0.00 | 0.00 | 36 | 1007.0 |
| 20260905231006 | 36 | 90 | 9.7 | 16.1 | 0.00 | 0.00 | 0.00 | 34 | 1005.6 |
| 20260905230504 | 36 | 157 | 11.3 | 14.5 | 0.00 | 0.00 | 0.00 | 34 | 1005.6 |
| 20260905224506 | 37 | 180 | 11.3 | 14.5 | 0.00 | 0.00 | 0.00 | 33 | 1005.6 |
| 20260905223507 | 36 | 112 | 11.3 | 14.5 | 0.00 | 0.00 | 0.00 | 34 | 1005.6 |
| 20260905223005 | 36 | 315 | 8.0 | 12.9 | 0.00 | 0.00 | 0.00 | 34 | 1005.6 |
| 20260905222508 | 36 | 112 | 6.4 | 9.7 | 0.00 | 0.00 | 0.00 | 34 | 1005.6 |
| 20260905222005 | 36 | 135 | 11.3 | 14.5 | 0.00 | 0.00 | 0.00 | 34 | 1005.6 |
| 20260905221509 | 36 | 157 | 12.9 | 17.7 | 0.00 | 0.00 | 0.00 | 34 | 1005.6 |